Powrót do katalogu

FENGYUN 1C DEB

AktywnySSO
NORAD 29828·DEBRIS·🇨🇳 China

Wystrzelony May 10, 1999 z Taiyuan Satellite Launch Center

Loading…

Następne Przeloty (najbliższe 24 godziny)

TLE

ŚwieżeSource: Space-Track

Epoka: Sep 14, 2026, 18:54 UTC

1 29828U 99025DW  26257.78818455  .00000564  00000-0  34515-3 0  9998
2 29828  98.7467 300.2741 0062413  97.9782 314.6032 14.08775876  6162

Śledź FENGYUN 1C DEB w czasie rzeczywistym z AllMySat

Download on the App Store